QFA121 YMML-YSSY

Flight info

Callsign QFA121
Flight time 1h 0m
Altitude 39000
Route ML H129 DOSEL Y59 RIVET
Aircraft A339/H-SADE1E2E3GHIJ3J5M1P2RWXY/LB2D1

Departure

Time 2026-05-04 10:28
Airport Melbourne Airport (YMML)

Arrival

Time 2026-05-04 11:28
Airport Sydney Kingsford Smith International Airport (YSSY)
Time Latitude Longitude Altitude Speed Heading
2026-05-04 09:43 -37.66927 144.84587 408 ft 0 kts 360°
2026-05-04 10:11 -37.66948 144.84583 407 ft 2 kts 281°
2026-05-04 10:11 -37.66948 144.84589 405 ft 0 kts 284°
2026-05-04 10:11 -37.66952 144.84612 405 ft 3 kts 327°
2026-05-04 10:12 -37.66966 144.84619 403 ft 0 kts 244°
2026-05-04 10:17 -37.66966 144.84618 405 ft 1 kts 244°
2026-05-04 10:17 -37.66992 144.84579 401 ft 9 kts 227°
2026-05-04 10:19 -37.67045 144.84399 398 ft 3 kts 253°
2026-05-04 10:19 -37.67045 144.84394 398 ft 0 kts 258°
2026-05-04 10:22 -37.67064 144.84257 395 ft 14 kts 262°
2026-05-04 10:22 -37.67080 144.84120 391 ft 14 kts 259°
2026-05-04 10:22 -37.67140 144.84055 393 ft 12 kts 189°
2026-05-04 10:23 -37.67246 144.84067 389 ft 19 kts 171°
2026-05-04 10:23 -37.67395 144.84096 384 ft 25 kts 171°
2026-05-04 10:25 -37.67866 144.84120 372 ft 0 kts 249°
2026-05-04 10:26 -37.67870 144.84104 373 ft 5 kts 251°
2026-05-04 10:26 -37.67861 144.84024 371 ft 13 kts 292°
2026-05-04 10:26 -37.67797 144.83956 372 ft 11 kts 345°
2026-05-04 10:27 -37.67779 144.83951 372 ft 1 kts 349°
2026-05-04 10:27 -37.67706 144.83936 375 ft 45 kts 352°
2026-05-04 10:27 -37.67045 144.83820 399 ft 141 kts 352°
2026-05-04 10:27 -37.65912 144.83624 890 ft 172 kts 352°
2026-05-04 10:28 -37.64744 144.83429 2097 ft 165 kts 348°
2026-05-04 10:28 -37.63581 144.83216 3055 ft 178 kts 345°
2026-05-04 10:28 -37.62287 144.82945 3748 ft 199 kts 345°
2026-05-04 10:28 -37.60852 144.82640 4467 ft 221 kts 346°
2026-05-04 10:29 -37.59237 144.82511 5105 ft 247 kts 359°
2026-05-04 10:29 -37.57499 144.83113 5711 ft 270 kts 19°
2026-05-04 10:29 -37.55815 144.84185 6102 ft 276 kts 22°
2026-05-04 10:29 -37.54114 144.85297 7148 ft 273 kts 22°
2026-05-04 10:30 -37.52422 144.86380 8204 ft 273 kts 21°
2026-05-04 10:30 -37.50721 144.87438 9261 ft 274 kts 20°
2026-05-04 10:30 -37.48994 144.88489 10229 ft 277 kts 20°
2026-05-04 10:30 -37.47200 144.89565 10723 ft 297 kts 20°
2026-05-04 10:31 -37.45271 144.90762 11090 ft 322 kts 24°
2026-05-04 10:31 -37.43419 144.92489 11701 ft 340 kts 38°
2026-05-04 10:32 -37.35296 145.06619 18718 ft 292 kts 46°
2026-05-04 10:33 -37.34171 145.08623 20071 ft 269 kts 44°
2026-05-04 10:33 -37.33133 145.10472 21265 ft 255 kts 43°
2026-05-04 10:33 -37.32063 145.12321 21698 ft 270 kts 42°
2026-05-04 10:33 -37.30898 145.14286 21918 ft 292 kts 43°
2026-05-04 10:34 -37.29649 145.16424 22113 ft 315 kts 44°
2026-05-04 10:34 -37.28330 145.18735 22301 ft 336 kts 45°
2026-05-04 10:34 -37.26941 145.21201 22485 ft 355 kts 45°
2026-05-04 10:34 -37.25469 145.23793 22664 ft 374 kts 45°
2026-05-04 10:35 -37.23920 145.26521 22949 ft 390 kts 46°
2026-05-04 10:35 -37.22344 145.29307 23585 ft 394 kts 46°
2026-05-04 10:35 -37.20755 145.32118 23880 ft 395 kts 46°
2026-05-04 10:35 -37.19161 145.34926 23976 ft 395 kts 45°
2026-05-04 10:36 -37.17568 145.37725 23995 ft 394 kts 45°
2026-05-04 10:36 -37.15969 145.40524 24000 ft 394 kts 45°
2026-05-04 10:36 -37.14366 145.43317 23998 ft 395 kts 45°
2026-05-04 10:36 -37.12759 145.46116 24002 ft 396 kts 45°
2026-05-04 10:37 -37.11161 145.48900 24001 ft 393 kts 45°
2026-05-04 10:37 -37.09562 145.51682 24003 ft 394 kts 45°
2026-05-04 10:37 -37.07954 145.54472 24006 ft 394 kts 46°
2026-05-04 10:37 -37.06355 145.57251 24001 ft 393 kts 46°
2026-05-04 10:39 -36.96687 145.74005 24767 ft 400 kts 46°
2026-05-04 10:39 -36.95048 145.76836 25335 ft 402 kts 46°
2026-05-04 10:39 -36.93410 145.79668 25960 ft 403 kts 46°
2026-05-04 10:40 -36.91762 145.82513 26538 ft 406 kts 46°
2026-05-04 10:40 -36.90094 145.85388 27060 ft 410 kts 45°
2026-05-04 10:40 -36.88415 145.88280 27595 ft 413 kts 45°
2026-05-04 10:40 -36.86721 145.91197 28138 ft 416 kts 45°
2026-05-04 10:41 -36.85017 145.94127 28685 ft 418 kts 45°
2026-05-04 10:41 -36.83299 145.97079 29187 ft 422 kts 45°
2026-05-04 10:41 -36.81570 146.00050 29661 ft 425 kts 44°
2026-05-04 10:41 -36.79846 146.03007 30147 ft 428 kts 44°
2026-05-04 10:42 -36.78089 146.06018 30561 ft 432 kts 44°
2026-05-04 10:42 -36.76309 146.09063 30942 ft 437 kts 44°
2026-05-04 10:42 -36.74509 146.12139 31308 ft 441 kts 44°
2026-05-04 10:42 -36.72693 146.15243 31700 ft 445 kts 44°
2026-05-04 10:43 -36.70863 146.18370 32079 ft 449 kts 44°
2026-05-04 10:44 -36.57630 146.40900 34013 ft 466 kts 43°
2026-05-04 10:45 -36.55716 146.44149 34255 ft 467 kts 43°
2026-05-04 10:45 -36.53791 146.47410 34466 ft 468 kts 43°
2026-05-04 10:45 -36.51863 146.50671 34677 ft 469 kts 43°
2026-05-04 10:45 -36.49930 146.53939 34894 ft 469 kts 43°
2026-05-04 10:46 -36.47995 146.57206 35113 ft 470 kts 43°
2026-05-04 10:46 -36.46052 146.60483 35316 ft 471 kts 43°
2026-05-04 10:46 -36.44107 146.63761 35517 ft 472 kts 44°
2026-05-04 10:46 -36.42155 146.67047 35733 ft 473 kts 44°
2026-05-04 10:47 -36.40199 146.70339 35952 ft 474 kts 44°
2026-05-04 10:47 -36.38240 146.73630 36168 ft 475 kts 44°
2026-05-04 10:47 -36.36275 146.76928 36387 ft 476 kts 44°
2026-05-04 10:47 -36.34310 146.80226 36585 ft 476 kts 44°
2026-05-04 10:49 -36.20445 147.03388 38158 ft 481 kts 44°
2026-05-04 10:49 -36.18448 147.06716 38374 ft 481 kts 44°
2026-05-04 10:50 -36.16448 147.10044 38603 ft 482 kts 44°
2026-05-04 10:51 -36.02317 147.33440 39067 ft 488 kts 44°
2026-05-04 10:52 -36.00283 147.36796 39076 ft 488 kts 44°
2026-05-04 10:52 -35.96208 147.43509 39071 ft 489 kts 44°
2026-05-04 10:54 -35.80491 147.69266 39087 ft 491 kts 44°
2026-05-04 10:56 -35.63927 147.96218 39093 ft 496 kts 44°
2026-05-04 10:57 -35.59751 148.02981 39099 ft 497 kts 44°
2026-05-04 10:57 -35.55560 148.09752 39097 ft 499 kts 44°
2026-05-04 10:58 -35.51349 148.16542 39100 ft 500 kts 44°
2026-05-04 10:58 -35.47118 148.23350 39099 ft 503 kts 44°
2026-05-04 10:59 -35.42896 148.30134 39098 ft 505 kts 44°
2026-05-04 10:59 -35.38619 148.36989 39106 ft 507 kts 44°
2026-05-04 11:00 -35.34334 148.43848 39105 ft 508 kts 44°
2026-05-04 11:01 -35.19301 148.67779 37350 ft 503 kts 44°
2026-05-04 11:02 -35.17171 148.71157 36992 ft 502 kts 44°
2026-05-04 11:02 -35.15040 148.74534 36609 ft 501 kts 44°
2026-05-04 11:05 -34.85478 149.21067 31648 ft 495 kts 46°
2026-05-04 11:06 -34.83368 149.24368 31291 ft 493 kts 46°
2026-05-04 11:06 -34.81272 149.27643 30942 ft 490 kts 46°
2026-05-04 11:06 -34.79182 149.30905 30613 ft 487 kts 46°
2026-05-04 11:06 -34.77105 149.34144 30278 ft 484 kts 46°
2026-05-04 11:08 -34.65416 149.58661 28236 ft 474 kts 57°
2026-05-04 11:10 -34.54931 149.82556 24245 ft 440 kts 58°
2026-05-04 11:12 -34.45237 150.04512 19687 ft 407 kts 57°
2026-05-04 11:12 -34.43905 150.07516 19075 ft 403 kts 57°
2026-05-04 11:12 -34.42586 150.10490 18478 ft 400 kts 57°
2026-05-04 11:12 -34.41272 150.13445 17811 ft 396 kts 57°
2026-05-04 11:13 -34.39978 150.16359 17132 ft 389 kts 57°
2026-05-04 11:13 -34.38706 150.19222 16484 ft 384 kts 57°
2026-05-04 11:13 -34.37443 150.22060 15841 ft 381 kts 57°
2026-05-04 11:13 -34.36193 150.24867 15207 ft 377 kts 57°
2026-05-04 11:14 -34.34955 150.27642 14589 ft 372 kts 57°
2026-05-04 11:14 -34.33736 150.30374 13987 ft 367 kts 57°
2026-05-04 11:14 -34.32526 150.33080 13312 ft 363 kts 57°
2026-05-04 11:16 -34.24784 150.50409 10177 ft 292 kts 57°
2026-05-04 11:16 -34.23814 150.52562 9984 ft 290 kts 57°
2026-05-04 11:16 -34.22867 150.54670 9741 ft 289 kts 57°
2026-05-04 11:17 -34.21909 150.56802 9476 ft 288 kts 57°
2026-05-04 11:17 -34.20956 150.58927 9224 ft 287 kts 57°
2026-05-04 11:19 -34.14351 150.73616 7627 ft 282 kts 57°
2026-05-04 11:19 -34.13416 150.75691 7461 ft 282 kts 57°
2026-05-04 11:19 -34.12481 150.77766 7297 ft 281 kts 57°
2026-05-04 11:19 -34.11550 150.79835 7121 ft 280 kts 57°
2026-05-04 11:20 -34.10635 150.81906 6939 ft 280 kts 61°
2026-05-04 11:20 -34.10202 150.84213 6769 ft 288 kts 85°
2026-05-04 11:20 -34.10577 150.86580 6547 ft 290 kts 110°
2026-05-04 11:20 -34.11410 150.88771 6369 ft 291 kts 113°
2026-05-04 11:22 -34.16680 151.04221 4303 ft 275 kts 84°
2026-05-04 11:22 -34.16527 151.06524 3942 ft 275 kts 82°
2026-05-04 11:23 -34.16391 151.08782 3568 ft 265 kts 83°
2026-05-04 11:23 -34.16271 151.11034 3205 ft 271 kts 83°
2026-05-04 11:24 -34.11563 151.21447 2200 ft 243 kts 16°
2026-05-04 11:25 -34.10034 151.22082 2015 ft 221 kts 15°
2026-05-04 11:25 -34.08520 151.22179 2001 ft 236 kts 348°
2026-05-04 11:25 -34.07026 151.21443 1995 ft 222 kts 335°
2026-05-04 11:26 -34.04566 151.20016 1996 ft 182 kts 341°
2026-05-04 11:27 -33.97743 151.18413 517 ft 128 kts 350°
2026-05-04 11:28 -33.96895 151.18197 195 ft 121 kts 349°
2026-05-04 11:28 -33.96081 151.17974 28 ft 116 kts 348°
2026-05-04 11:28 -33.95574 151.17848 29 ft 22 kts 348°
2026-05-04 11:28 -33.95452 151.17817 28 ft 21 kts 347°
2026-05-04 11:29 -33.95317 151.17783 29 ft 17 kts 352°